Terminal Aerodrome Forecast
Issued by NWS Honolulu, HI

Home | Current Version | Previous Version | Text Only | Print | Product List | Glossary On
Versions: 1 2 3 4 5 6 7 8 9 10 11 12 13 14 15 16 17 18 19 20 21 22 23 24 25 26 27 28 29 30 31 32 33 34 35 36 37 38 39 40 41 42 43 44 45
000
FTPA31 PHFO 210500
TAFHNL
TAF
PHNL 210527Z 2106/2212 34004KT P6SM FEW030 FEW050
     FM212000 18006KT P6SM SCT030 SCT050
     FM212300 22008KT P6SM SCT035 BKN050
     FM220400 01009KT P6SM SCT030 BKN050=

USA.gov is the U.S. government's official web portal to all federal, state and local government web resources and services.